TimePDT,TemperatureF,Dew PointF,Humidity,Sea Level PressureIn,VisibilityMPH,Wind Direction,Wind SpeedMPH,Gust SpeedMPH,PrecipitationIn,Events,Conditions,WindDirDegrees,DateUTC
12:52 AM,82.9,71.1,67,29.81,10.0,West,3.5,-,N/A,,Clear,270,2013-09-05 07:52:00
1:52 AM,82.0,73.0,74,29.79,10.0,NW,3.5,-,N/A,,Clear,310,2013-09-05 08:52:00
2:52 AM,82.0,72.0,71,29.78,10.0,West,3.5,-,N/A,,Clear,270,2013-09-05 09:52:00
3:52 AM,80.1,72.0,76,29.79,10.0,Calm,Calm,-,N/A,,Clear,0,2013-09-05 10:52:00
4:52 AM,80.1,72.0,76,29.79,10.0,Calm,Calm,-,N/A,,Clear,0,2013-09-05 11:52:00
5:52 AM,79.0,73.0,82,29.80,10.0,Calm,Calm,-,N/A,,Clear,0,2013-09-05 12:52:00
6:52 AM,82.0,70.0,67,29.81,10.0,Calm,Calm,-,N/A,,Clear,0,2013-09-05 13:52:00
7:52 AM,82.9,69.1,63,29.83,10.0,SW,5.8,-,N/A,,Clear,220,2013-09-05 14:52:00
8:52 AM,89.1,68.0,50,29.84,10.0,SW,4.6,-,N/A,,Clear,230,2013-09-05 15:52:00
9:52 AM,93.0,66.0,41,29.84,10.0,Calm,Calm,-,N/A,,Clear,0,2013-09-05 16:52:00
10:52 AM,96.1,64.9,36,29.84,10.0,SSW,3.5,-,N/A,,Clear,210,2013-09-05 17:52:00
11:52 AM,100.0,64.0,31,29.83,10.0,Calm,Calm,-,N/A,,Clear,0,2013-09-05 18:52:00
12:52 PM,102.0,62.1,27,29.81,10.0,Calm,Calm,-,N/A,,Clear,0,2013-09-05 19:52:00
1:52 PM,104.0,59.0,23,29.77,10.0,Calm,Calm,-,N/A,,Clear,0,2013-09-05 20:52:00
2:52 PM,107.1,57.0,19,29.75,10.0,WSW,6.9,-,N/A,,Clear,240,2013-09-05 21:52:00
3:52 PM,107.1,52.0,16,29.73,10.0,Variable,4.6,-,N/A,,Partly Cloudy,0,2013-09-05 22:52:00
4:52 PM,108.0,52.0,16,29.72,10.0,WSW,6.9,-,N/A,,Partly Cloudy,240,2013-09-05 23:52:00
5:52 PM,107.1,53.1,17,29.71,10.0,Variable,4.6,-,N/A,,Partly Cloudy,0,2013-09-06 00:52:00
6:52 PM,105.1,54.0,18,29.70,10.0,West,6.9,-,N/A,,Partly Cloudy,260,2013-09-06 01:52:00
7:52 PM,102.0,55.0,21,29.72,10.0,West,5.8,-,N/A,,Clear,260,2013-09-06 02:52:00
8:52 PM,99.0,59.0,26,29.74,10.0,WSW,9.2,-,N/A,,Clear,240,2013-09-06 03:52:00
9:52 PM,97.0,60.1,29,29.74,10.0,WNW,6.9,-,N/A,,Clear,290,2013-09-06 04:52:00
10:52 PM,98.1,57.9,26,29.75,10.0,West,5.8,-,N/A,,Clear,270,2013-09-06 05:52:00
11:52 PM,93.0,57.9,31,29.75,10.0,NW,6.9,-,N/A,,Clear,310,2013-09-06 06:52:00